Current weather by "City, St" or "zip code"  
 
Advertise Here

Current Conditions: Albertville, Albertville Municipal Airport, AL

Partly Cloudy


63.0 F

Last Updated on May 12 2021, 11:55 am CDT
Humidity: 68%
Wind Speed: NE 6.9 mph
Barometer 30.17 in
Dewpoint: 51.8 F
Visibility: 10.00 mi
Precip: --
Heat Index: NA
Wind Chill: 63 F
Current conditions at:

Albertville, Albertville Municipal Airport, AL (K8A0)

Lat: 34.22889 Lon: 86.25556

Local Radar Image active severe weather and emergency alerts image image weather storm and storm spotter reports image weather observation monitoring service image
Local
Radar
Active
Alerts
Storm Reports Obs
Monitoring

Sign-up For Email & Text Message Weather Alert Notification Services


Advertise Here

Observation History for Albertville, Albertville Municipal Airport, AL


Time Wind
(mph)
Vis
(mi)
Weather Precip (in) Temperature (F) Relative
Humidity
Wind
Chill
(F)
Heat
Index
(F)
Pressure
Air Dwpt altimeter
(in)
sea level
(mb)
Rmks
11:55 am CDT NE 6.9 10.00 Partly Cloudy -- 63.0 51.8 68% 63 NA 30.17 M
10:55 am CDT NE 10.4 10.00 Partly Cloudy -- 59.0 51.8 77% 57 NA 30.18 M
10:35 am CDT NE 11.5 10.00 Mostly Cloudy -- 59.0 51.8 77% 57 NA 30.17 M
9:55 am CDT NE 10.4 10.00 Mostly Cloudy -- 57.0 51.8 82% 55 NA 30.17 M
8:55 am CDT NE 9.2 10.00 Partly Cloudy -- 54.0 51.8 94% 51 NA 30.17 M
8:35 am CDT NE 9.2 10.00 Partly Cloudy -- 54.0 50.0 88% 51 NA 30.17 M
7:55 am CDT NE 5.8 10.00 Partly Cloudy -- 54.0 50.0 88% 53 NA 30.15 M
6:55 am CDT E 3.5 10.00 Mostly Cloudy -- 52.0 51.8 100% NA NA 30.15 M
5:55 am CDT NE 11.5 7.00 Overcast -- 54.0 51.8 94% 51 NA 30.14 M
4:55 am CDT NE 10.4 10.00 Mostly Cloudy -- 54.0 51.8 94% 51 NA 30.10 M
3:55 am CDT E 5.8 7.00 Overcast -- 55.0 53.6 94% 54 NA 30.09 M
2:55 am CDT NE 5.8 10.00 Overcast -- 57.0 53.6 88% 56 NA 30.09 M
1:55 am CDT N 4.6 10.00 Overcast -- 61.0 53.6 77% 61 NA 30.09 M
12:55 am CDT N 0.0 10.00 Overcast -- 61.0 53.6 77% NA NA 30.09 M
11:55 pm CDT N 3.5 10.00 Mostly Cloudy -- 61.0 53.6 77% NA NA 30.11 M
10:55 pm CDT N 0.0 10.00 Overcast -- 63.0 51.8 68% NA NA 30.12 M
9:55 pm CDT N 0.0 10.00 Mostly Cloudy -- 63.0 53.6 73% NA NA 30.12 M
8:55 pm CDT E 3.5 10.00 Overcast -- 63.0 53.6 73% NA NA 30.09 M
8:35 pm CDT NE 5.8 10.00 Overcast -- 64.0 53.6 68% NA NA 30.09 M
7:55 pm CDT NE 3.5 10.00 Overcast -- 64.0 55.4 73% NA NA 30.09 M
6:55 pm CDT NE 6.9 10.00 Mostly Cloudy -- 66.0 55.4 68% NA NA 30.06 M
5:55 pm CDT NE 5.8 10.00 Partly Cloudy -- 68.0 55.4 64% NA NA 30.06 M
4:55 pm CDT N 8.1 10.00 Partly Cloudy -- 68.0 59.0 73% NA NA 30.07 M
3:55 pm CDT NW 4.6 10.00 Mostly Cloudy -- 68.0 59.0 73% NA NA 30.09 M

Regional Weather Observation


Cullman Regional Folsom Field, AL (KCMD)

Mostly Cloudy
64.0 F

Redstone Airfield, AL (KHUA)

Fair
64.0 F

Huntsville, Huntsville International / Jones Field, AL (KHSV)

A Few Clouds
66.0 F

Scottsboro Municipal Airport, AL (K4A6)

Fair
68.0 F

Huntsville, Madison County Executive Airport, AL (KMDQ)

Fair
65.0 F

Decatur, Pryor Field, AL (KDCU)

Fair
66.0 F
Advertise Here

Advertise Here